CHH7218 ZGHA-ZJHK

Flight info

Callsign CHH7218
Flight time N/A
Altitude 25600
Route OLT8X OLTUS R343 LBN W159 BHY W70 NYB
Aircraft B738/M-SDE2E3FGHIRWXY/LB1

Departure

Time 2026-04-27 21:58
Airport Changsha Huanghua International Airport (ZGHA)

Arrival

Time N/A
Airport Haikou Meilan International Airport (ZJHK)
Time Latitude Longitude Altitude Speed Heading
2026-04-27 21:46 28.18648 113.21446 212 ft 0 kts 358°
2026-04-27 21:48 28.18625 113.21447 214 ft 4 kts 358°
2026-04-27 21:49 28.18599 113.21448 213 ft 4 kts
2026-04-27 21:49 28.18578 113.21439 214 ft 4 kts 62°
2026-04-27 21:49 28.18571 113.21411 214 ft 4 kts 86°
2026-04-27 21:49 28.18570 113.21396 215 ft 0 kts 87°
2026-04-27 21:52 28.18572 113.21438 213 ft 12 kts 87°
2026-04-27 21:53 28.18575 113.21534 212 ft 12 kts 87°
2026-04-27 21:53 28.18579 113.21628 212 ft 12 kts 87°
2026-04-27 21:53 28.18582 113.21689 212 ft 12 kts 87°
2026-04-27 21:53 28.18574 113.21804 213 ft 11 kts 130°
2026-04-27 21:54 28.18500 113.21815 212 ft 11 kts 178°
2026-04-27 21:54 28.18413 113.21820 212 ft 15 kts 177°
2026-04-27 21:54 28.18314 113.21826 217 ft 14 kts 176°
2026-04-27 21:54 28.18185 113.21834 218 ft 21 kts 177°
2026-04-27 21:55 28.18040 113.21843 213 ft 20 kts 176°
2026-04-27 21:55 28.17900 113.21852 213 ft 20 kts 177°
2026-04-27 21:55 28.17766 113.21870 214 ft 19 kts 150°
2026-04-27 21:55 28.17742 113.21933 214 ft 1 kts 88°
2026-04-27 21:56 28.17742 113.21936 214 ft 0 kts 88°
2026-04-27 21:56 28.17745 113.22010 215 ft 9 kts 83°
2026-04-27 21:56 28.17789 113.22046 218 ft 9 kts 355°
2026-04-27 21:57 28.17805 113.22045 218 ft 0 kts 354°
2026-04-27 21:57 28.18069 113.22028 220 ft 86 kts 357°
2026-04-27 21:58 28.18965 113.21969 224 ft 169 kts 356°
2026-04-27 21:58 28.20316 113.21893 652 ft 215 kts 356°
2026-04-27 21:58 28.21911 113.21795 1305 ft 242 kts 355°
2026-04-27 21:58 28.23646 113.21717 2234 ft 249 kts 356°
2026-04-27 21:59 28.25336 113.21610 3487 ft 235 kts 355°
2026-04-27 21:59 28.26954 113.21501 4217 ft 235 kts 354°
2026-04-27 21:59 28.28618 113.21388 4759 ft 243 kts 354°
2026-04-27 21:59 28.30316 113.21276 5408 ft 245 kts 354°
2026-04-27 22:00 28.31995 113.21170 6107 ft 246 kts 353°
2026-04-27 22:00 28.33733 113.21061 6732 ft 249 kts 353°
2026-04-27 22:00 28.35470 113.20944 7333 ft 251 kts 349°
2026-04-27 22:00 28.37061 113.20280 7915 ft 242 kts 316°
2026-04-27 22:01 28.38055 113.18821 8545 ft 231 kts 288°
2026-04-27 22:01 28.38397 113.17088 9141 ft 227 kts 267°
2026-04-27 22:01 28.38337 113.15296 9756 ft 228 kts 263°
2026-04-27 22:01 28.38236 113.13490 10322 ft 230 kts 263°
2026-04-27 22:02 28.37963 113.11709 10888 ft 230 kts 244°
2026-04-27 22:02 28.36995 113.10283 11427 ft 233 kts 221°
2026-04-27 22:02 28.35488 113.09397 11603 ft 258 kts 195°
2026-04-27 22:02 28.33648 113.09170 11995 ft 270 kts 187°
2026-04-27 22:03 28.31755 113.09044 12531 ft 274 kts 186°
2026-04-27 22:03 28.29839 113.08922 13110 ft 277 kts 187°
2026-04-27 22:03 28.27922 113.08789 13665 ft 281 kts 187°
2026-04-27 22:03 28.25959 113.08646 14208 ft 284 kts 187°
2026-04-27 22:04 28.23983 113.08499 14766 ft 286 kts 187°
2026-04-27 22:04 28.21992 113.08351 15339 ft 288 kts 187°
2026-04-27 22:04 28.19984 113.08200 15889 ft 290 kts 187°
2026-04-27 22:04 28.17971 113.07969 16417 ft 291 kts 197°
2026-04-27 22:05 28.16193 113.06939 16923 ft 288 kts 223°
2026-04-27 22:05 28.14965 113.05165 17391 ft 288 kts 244°
2026-04-27 22:05 28.14375 113.02991 17797 ft 294 kts 260°
2026-04-27 22:05 28.14074 113.00606 17900 ft 316 kts 262°
2026-04-27 22:06 28.13786 112.98068 18053 ft 334 kts 262°
2026-04-27 22:06 28.13490 112.95381 18189 ft 352 kts 265°
2026-04-27 22:06 28.13477 112.92541 18302 ft 369 kts 272°
2026-04-27 22:06 28.13656 112.89581 18401 ft 384 kts 274°
2026-04-27 22:07 28.13895 112.86513 18489 ft 397 kts 274°
2026-04-27 22:07 28.14141 112.83343 18570 ft 409 kts 274°
2026-04-27 22:07 28.14373 112.80103 18769 ft 415 kts 274°
2026-04-27 22:07 28.14590 112.76829 19158 ft 416 kts 273°
2026-04-27 22:08 28.14793 112.73567 19545 ft 415 kts 273°
2026-04-27 22:08 28.14985 112.70328 19754 ft 419 kts 273°
2026-04-27 22:08 28.15176 112.67037 20142 ft 418 kts 273°
2026-04-27 22:08 28.15364 112.63749 20516 ft 418 kts 273°
2026-04-27 22:09 28.15552 112.60453 20824 ft 420 kts 273°
2026-04-27 22:09 28.15741 112.57143 21132 ft 422 kts 273°
2026-04-27 22:09 28.15930 112.53811 21422 ft 424 kts 273°
2026-04-27 22:09 28.16119 112.50472 21724 ft 425 kts 273°
2026-04-27 22:10 28.16308 112.47131 22043 ft 426 kts 273°
2026-04-27 22:10 28.16496 112.43775 22350 ft 427 kts 273°
2026-04-27 22:10 28.16685 112.40415 22668 ft 427 kts 273°
2026-04-27 22:10 28.16872 112.37048 22947 ft 428 kts 273°
2026-04-27 22:11 28.16885 112.33715 23159 ft 431 kts 262°
2026-04-27 22:11 28.16023 112.30454 23387 ft 434 kts 246°
2026-04-27 22:11 28.14461 112.27518 23642 ft 438 kts 234°
2026-04-27 22:11 28.12289 112.25071 23827 ft 444 kts 220°
2026-04-27 22:12 28.09750 112.23055 24041 ft 446 kts 217°
2026-04-27 22:12 28.07181 112.21070 24227 ft 447 kts 217°
2026-04-27 22:12 28.04552 112.19161 24401 ft 450 kts 214°
2026-04-27 22:12 28.01859 112.17338 24575 ft 452 kts 214°
2026-04-27 22:13 27.99153 112.15516 24735 ft 453 kts 214°
2026-04-27 22:13 27.96453 112.13675 24887 ft 454 kts 214°
2026-04-27 22:13 27.93786 112.11822 25048 ft 455 kts 214°
2026-04-27 22:13 27.91096 112.09929 25217 ft 456 kts 215°
2026-04-27 22:14 27.88407 112.08031 25395 ft 456 kts 215°
2026-04-27 22:14 27.85714 112.06133 25475 ft 456 kts 215°
2026-04-27 22:14 27.83013 112.04233 25495 ft 459 kts 214°
2026-04-27 22:14 27.80282 112.02318 25507 ft 462 kts 214°
2026-04-27 22:15 27.77551 112.00407 25508 ft 462 kts 214°
2026-04-27 22:15 27.74812 111.98497 25507 ft 462 kts 214°
2026-04-27 22:15 27.72071 111.96594 25498 ft 463 kts 214°
2026-04-27 22:15 27.69330 111.94694 25495 ft 463 kts 214°
2026-04-27 22:16 27.66581 111.92790 25500 ft 463 kts 214°
2026-04-27 22:16 27.63830 111.90884 25499 ft 463 kts 214°
2026-04-27 22:16 27.61079 111.88977 25500 ft 464 kts 214°
2026-04-27 22:16 27.58328 111.87072 25504 ft 464 kts 214°
2026-04-27 22:17 27.55581 111.85170 25497 ft 464 kts 214°
2026-04-27 22:17 27.52832 111.83267 25499 ft 464 kts 214°
2026-04-27 22:17 27.50119 111.81390 25495 ft 464 kts 214°
2026-04-27 22:17 27.47362 111.79482 25510 ft 464 kts 214°
2026-04-27 22:18 27.44618 111.77576 25481 ft 464 kts 214°
2026-04-27 22:18 27.41880 111.75671 25489 ft 463 kts 214°
2026-04-27 22:18 27.39136 111.73763 25487 ft 463 kts 214°
2026-04-27 22:18 27.36397 111.71861 25481 ft 462 kts 214°
2026-04-27 22:19 27.33653 111.69957 25486 ft 462 kts 214°
2026-04-27 22:19 27.30916 111.68059 25483 ft 462 kts 214°
2026-04-27 22:19 27.28180 111.66163 25484 ft 462 kts 214°
2026-04-27 22:19 27.25446 111.64269 25476 ft 462 kts 214°
2026-04-27 22:20 27.22712 111.62376 25477 ft 461 kts 214°
2026-04-27 22:20 27.19974 111.60481 25467 ft 462 kts 214°
2026-04-27 22:20 27.17274 111.58615 25474 ft 462 kts 214°
2026-04-27 22:20 27.14519 111.56753 25472 ft 463 kts 213°
2026-04-27 22:21 27.11737 111.54916 25475 ft 464 kts 213°
2026-04-27 22:21 27.08948 111.53089 25468 ft 464 kts 213°
2026-04-27 22:21 27.06155 111.51260 25465 ft 465 kts 213°
2026-04-27 22:21 27.03368 111.49428 25463 ft 465 kts 213°
2026-04-27 22:22 27.00577 111.47590 25462 ft 465 kts 213°
2026-04-27 22:22 26.97787 111.45749 25464 ft 465 kts 213°
2026-04-27 22:22 26.94992 111.43905 25452 ft 466 kts 213°
2026-04-27 22:22 26.92193 111.42060 25455 ft 466 kts 213°
2026-04-27 22:23 26.89421 111.40177 25461 ft 466 kts 214°
2026-04-27 22:23 26.88500 111.39518 25462 ft 466 kts 215°